Location: Nairn
(57.5833°N, 3.8667°W)
Time: 01:43:12
(UTC+00:00)

COSMOS 2428 - Pass Details

Date: 07 August 2020
Orbit: 844 x 859 km, 70.9° (Epoch: 18 September)

Event Time Altitude Azimuth Distance (km) Brightness Sun altitude
Rises 00:17:14 0° 323° (NW) 3,433 6.8 -16.1°
Reaches altitude 10° 00:19:42 10° 321° (NW) 2,496 5.9 -16.1°
Maximum altitude 00:25:25 74° 238° (WSW) 896 2.7 -16.1°
Enters shadow 00:29:11 22° 158° (SSE) 1,779 3.9 -16.1°
